Regional Weather Roundup
Issued by NWS Grand Forks, ND

Home | Current Version | Previous Version | Text Only | Print | Product List | Glossary Off
Versions: 1 2 3 4 5 6 7 8 9 10 11 12 13 14 15 16 17 18 19 20 21 22 23 24 25 26 27 28 29 30 31 32 33 34 35 36 37 38 39 40 41 42 43 44 45 46 47 48 49 50

000
ASUS43 KFGF 250010
RWRFGF
PRAIRIE TO PINES  WEATHER ROUNDUP
NATIONAL WEATHER SERVICE EASTERN NORTH DAKOTA/GRAND FORKS ND
700 PM CDT WED AUG 24 2016

 **SATELLITE DATA USED TO AUGMENT SKY COVER AT AUTOMATED STATIONS**
 *****  WEATHER ACROSS EASTERN NORTH DAKOTA  *****

CITY           SKY/WX    TMP DP  RH WIND       PRES   REMARKS
GRAND FORKS    MOSUNNY   70  51  51 W14       29.88S
6HR MIN TEMP:  70; 6HR MAX TEMP:  75;

GRAND FRKS AFB NOT AVBL
GRAND FRKS NWS   N/A     70 N/A N/A W12         N/A
DEVILS LAKE    PTSUNNY   66  52  60 W22       29.92S
6HR MIN TEMP:  66; 6HR MAX TEMP:  70;

FARGO          MOSUNNY   73  52  47 W17       29.94S
WAHPETON ARPT  PTCLDY    72  52  49 W10       29.97S
$$

 ***** WEATHER ACROSS CENTRAL AND WESTERN NORTH DAKOTA  *****

CITY           SKY/WX    TMP DP  RH WIND       PRES   REMARKS
BISMARCK       MOSUNNY   71  47  42 NW17G25   30.01S
6HR MIN TEMP:  68; 6HR MAX TEMP:  74;

MINOT          CLOUDY    63  52  67 W20       29.96R
6HR MIN TEMP:  63; 6HR MAX TEMP:  73; 6HR PCP: TRACE;

JAMESTOWN      MOSUNNY   69  49  48 W16       29.97S
6HR MIN TEMP:  68; 6HR MAX TEMP:  71;

MINOT AFB      LGT RAIN  59  55  85 W12       29.94R
GARRISON         N/A     64  49  57 W18G26    30.01R
WILLISTON      CLOUDY    59  50  72 NW20G30   30.08R
6HR MIN TEMP:  57; 6HR MAX TEMP:  66; 6HR PCP: TRACE;

DICKINSON      CLOUDY    62  43  49 NW25G32   30.08S
6HR MIN TEMP:  62; 6HR MAX TEMP:  72;

HETTINGER      SUNNY     69  43  38 NW24G33   30.11R
6HR MIN TEMP:  69; 6HR MAX TEMP:  75;

$$

 *****  OTHER AIRPORT OBSERVATIONS IN OUR AREA  *****

CITY           SKY/WX    TMP DP  RH WIND       PRES   REMARKS
WALHALLA       NOT AVBL
GRAFTON AIRPOR CLOUDY    70  52  52 W17G23    29.88F
VALLEY CITY AR MOCLDY    70  50  49 W14       29.99R
CANDO          NOT AVBL
CAVALIER APRT  FAIR      70  52  52 SW12G18   29.85F
GWINNER        FAIR      73  55  53 NW7       29.99R
SHEYENNE NWR     N/A     73  51  46 W10       29.95
ROLLA          CLOUDY    59  55  88 W14       29.91R
 ***** THE ABOVE OBSERVATIONS ARE NON NWS ARE NOT QUALITY
       CONTROLLED AND MAY MIS-REPORT RAIN FOR SNOW...
$$

  *****  WEATHER ACROSS NORTHERN MINNESOTA  *****

CITY           SKY/WX    TMP DP  RH WIND       PRES   REMARKS
FLAG ISLAND    PTSUNNY   72  54  53 W8        29.81S HAZE
WARROAD        MOSUNNY   70  55  60 W10G17    29.86R
ROSEAU         MOSUNNY   72  55  56 W8G16     29.85S
HALLOCK        CLOUDY    70  52  52 W12       29.85S
THF RVR FALLS  MOSUNNY   71  51  49 W14       29.90S
6HR MIN TEMP:  70; 6HR MAX TEMP:  74;

BAUDETTE       MOSUNNY   70  52  52 W8        29.86R
6HR MIN TEMP:  70; 6HR MAX TEMP:  76;

WASKISH        PTSUNNY   70  55  60 W13       29.89R
CROOKSTON      SUNNY     72  52  49 W14       29.90S
STEPHEN NDAWN    N/A     70  52  52 W10         N/A
GREENBUSH NDAW   N/A     70  54  56 W8          N/A
$$
  *****  WEATHER ACROSS CENTRAL AND WEST MINNESOTA  *****

CITY           SKY/WX    TMP DP  RH WIND       PRES   REMARKS
FOSSTON        PTSUNNY   70  52  52 W12       29.93R
BEMIDJI        CLOUDY    68  53  59 SW8       29.93R
PARK RAPIDS    MOSUNNY   70  53  54 W10       29.95R
6HR MIN TEMP:  70; 6HR MAX TEMP:  76;

ELBOW LAKE     FAIR      70  56  61 NW9       29.98F
WADENA         SUNNY     70  55  60 W8G22     29.95F
DETROIT LAKES  MOSUNNY   70  54  56 W8        29.97S
MOORHEAD       SUNNY     73  52  46 W16       29.95S
FERGUS FALLS   SUNNY     72  54  53 W12       29.98S
MORRIS MN      PTSUNNY   72  59  64 W7        29.98F
STAPLES        SUNNY     70  52  52 W14G20    29.96R
$$
  *****  WEATHER ELSEWHERE ACROSS MINNESOTA  *****

CITY           SKY/WX    TMP DP  RH WIND       PRES   REMARKS
DULUTH         CLOUDY    74  57  55 W10       29.88S
6HR MIN TEMP:  74; 6HR MAX TEMP:  82;

INTRNTL FALLS  PTSUNNY   71  53  52 W12       29.85R
6HR MIN TEMP:  71; 6HR MAX TEMP:  79;

ELY            PTCLDY    73  52  46 W9        29.86R
CLOQUET        CLOUDY    73  54  49 W8        29.89F
WHEATON        NOT AVBL
BRAINERD       SUNNY     72  53  51 W13       29.94S
6HR MIN TEMP:  72; 6HR MAX TEMP:  79;

HIBBING        PTSUNNY   70  52  52 W10G18    29.89R
6HR MIN TEMP:  70; 6HR MAX TEMP:  78;

ALEXANDRIA     MOSUNNY   71  55  56 W9        29.99F
6HR MIN TEMP:  71; 6HR MAX TEMP:  75;

SAINT CLOUD    CLOUDY    71  58  63 W10       29.97R
6HR MIN TEMP:  71; 6HR MAX TEMP:  80;

MINNEAPOLIS    CLOUDY    74  58  57 W10       29.96S
6HR MIN TEMP:  74; 6HR MAX TEMP:  82;

$$

  *****  WEATHER ACROSS SOUTH DAKOTA  *****

CITY           SKY/WX    TMP DP  RH WIND       PRES   REMARKS
SIOUX FALLS    CLOUDY    72  59  63 W3        30.05F
6HR MIN TEMP:  71; 6HR MAX TEMP:  76;

BROOKINGS      CLOUDY    70  58  65 SW5       30.04R
WATERTOWN      PTSUNNY   71  54  54 W7        30.02F
6HR MIN TEMP:  71; 6HR MAX TEMP:  75;

HURON          CLOUDY    73  54  51 N6        30.00F
6HR MIN TEMP:  73; 6HR MAX TEMP:  79;

SISSETON         N/A     75  54  47 NW12      29.97F
ABERDEEN       MOSUNNY   77  49  37 W9G20     30.00S
6HR MIN TEMP:  73; 6HR MAX TEMP:  79;

MITCHELL       CLOUDY    72  58  61 S3        30.05R
PIERRE         PTSUNNY   77  47  34 NW9       30.03F
6HR MIN TEMP:  70; 6HR MAX TEMP:  79;

MOBRIDGE       MOSUNNY   80  41  24 NW13      30.01R
RAPID CITY     CLOUDY    71  45  39 N13       30.15R
6HR MIN TEMP:  71; 6HR MAX TEMP:  77;

$$

  *****  SOME WEATHER IN NEARBY STATES *****

CITY           SKY/WX    TMP DP  RH WIND       PRES   REMARKS
GLASGOW MT     CLOUDY    60  46  59 NW20      30.20R
6HR MIN TEMP:  54; 6HR MAX TEMP:  61; 6HR PCP: TRACE;

GREAT FALLS MT CLOUDY    61  38  42 S3        30.33F
6HR MIN TEMP:  59; 6HR MAX TEMP:  64; 6HR PCP: TRACE;

CHEYENNE WY    CLOUDY    62  46  55 S10       30.25S
6HR MIN TEMP:  61; 6HR MAX TEMP:  68;

SCOTTSBLUFF NE CLOUDY    71  48  43 E14       30.16R
6HR MIN TEMP:  68; 6HR MAX TEMP:  75;

OMAHA NE       LGT RAIN  71  65  81 N9        30.02F
6HR MIN TEMP:  71; 6HR MAX TEMP:  84; 6HR PCP: TRACE;

DES MOINES IA  RAIN      73  70  90 NE13G24   29.98S FOG
6HR MIN TEMP:  73; 6HR MAX TEMP:  85; 6HR PCP:  0.45;

DAVENPORT IA   MOCLDY    80  69  69 W6        29.96F
6HR MIN TEMP:  80; 6HR MAX TEMP:  85;

CHICAGO IL     PTCLDY    82  71  69 W8        29.94R
6HR MIN TEMP:  77; 6HR MAX TEMP:  84;

EAU CLAIRE WI  PTCLDY    74  61  63 W6        29.92S
6HR MIN TEMP:  74; 6HR MAX TEMP:  80;

LA CROSSE WI   PTCLDY    79  32  18 NW7       29.93S
6HR MIN TEMP:  77; 6HR MAX TEMP:  85; 6HR PCP: TRACE;

$$

  *****  SOME NATIONAL WEATHER *****

CITY           SKY/WX    TMP DP  RH WIND       PRES   REMARKS
LA GUARDIA NY  PTCLDY    80  62  54 S12       30.16S
6HR MIN TEMP:  79; 6HR MAX TEMP:  89;

RALEIGH NC     MOCLDY    80  64  58 S5        30.21R
6HR MIN TEMP:  80; 6HR MAX TEMP:  87;

ATLANTA GA     MOCLDY    79  75  87 E6        30.20S
6HR MIN TEMP:  73; 6HR MAX TEMP:  85; 6HR PCP:  0.80;

NEW ORLEANS LA CLOUDY    86  76  71 VRB3      30.08F HX  96
6HR MIN TEMP:  84; 6HR MAX TEMP:  95; 6HR PCP:  0.60;

OKLAHOMA CITY  PTSUNNY   90  66  45 S18       29.97F HX  92
6HR MIN TEMP:  90; 6HR MAX TEMP:  96;

ALBUQUERQUE NM MOSUNNY   75  46  35 NE8       30.16F
6HR MIN TEMP:  70; 6HR MAX TEMP:  77;

SALT LAKE CITY PTSUNNY   82  19   9 N10       30.10F
6HR MIN TEMP:  78; 6HR MAX TEMP:  84;

LOS ANGELES CA SUNNY     72  61  68 W10       29.94F
6HR MIN TEMP:  71; 6HR MC1F1C2F2C3F3C4F4C5F5C6F6C7F7C8F8C9F9CaFaCbFbCcFcCd!



USA.gov is the U.S. government's official web portal to all federal, state and local government web resources and services.